默认 日期 大小 文件数 浏览量 最新下载 xml
lexi​磁力链接相关资源由用户搜索指令自动获取,结果来源于网络,本站不存储任何资料,亦不承担任何责任,请于24小时内删除,搜索到19411个磁力,显示前4000条数据,用时7ms。
    {"GirlsWay.18.07.26.Lexi.Belle.And.Emily.Addison.Dust.Bunnies.XXX.SD.mp4": 260621660}
创建时间: 2018-11-02 19:55:58 大小:248.55 MB 文件数量:1 热度:55 最近下载:2025-08-12 16:39:02
    ... 器.rar": 26258, "15.BraceFaced - Lexi Lore - The Bracefaced Hook Up ...
创建时间: 2018-11-02 20:11:13 大小:928.47 MB 文件数量:56 热度:78 最近下载:2025-10-01 22:39:03
    ... jpg": 1002175, "lexi-danny-002.jpg": 1202736, "lexi-danny-003.jpg ... ": 1276758, "lexi-danny-004.jpg ... ": 1351642, "lexi-danny-005.jpg ... ": 1406479, "lexi-danny-006.jpg ...
创建时间: 2018-11-02 20:13:32 大小:100.94 MB 文件数量:89 热度:36 最近下载:2025-07-20 08:33:02
    {"RARBG.com.txt": 34, "dp-lexi.1080p.x264.mkv": 11737637401, "dp-lexi.1080p.x264.nfo": 8897}
创建时间: 2018-11-02 20:22:34 大小:10.93 GB 文件数量:3 热度:19 最近下载:2024-12-17 17:45:03
    {"RARBG.txt": 30, "ultrafilms.18.01.23.lexi.dona.analfall.4k.mp4": 5156775734, "ultrafilms.18.01.23.lexi.dona.analfall.4k.nfo": 5194}
创建时间: 2018-11-02 20:29:14 大小:4.8 GB 文件数量:3 热度:90 最近下载:2025-09-16 13:13:02
    {"RARBG.txt": 30, "tmf.17.03.13.lexi.dona.and.katy.sky.full.anal.fisting.orgasm.mp4": 1500843912, "tmf.17.03.13.lexi.dona.and.katy.sky.full.anal.fisting.orgasm.nfo": 5230}
创建时间: 2018-11-02 20:52:30 大小:1.4 GB 文件数量:3 热度:115 最近下载:2025-09-01 12:54:03
    {"RARBG.txt": 30, "fds.17.07.21.jasmine.jae.and.lexi.lou.mp4": 1485481137, "fds.17.07.21.jasmine.jae.and.lexi.lou.nfo": 5213}
创建时间: 2018-11-02 20:52:52 大小:1.38 GB 文件数量:3 热度:89 最近下载:2025-09-27 09:15:02
    {"Lexi Vixi gets wet and horny on SexyChat.flv": 199998803}
创建时间: 2018-11-02 20:55:20 大小:190.73 MB 文件数量:1 热度:55 最近下载:2025-08-22 22:53:02
    {"RARBG.txt": 30, "strandedteens.18.03.22.lexi.lore.blonde.teen.fucks.for.ride.mp4": 1390267660, "strandedteens.18.03.22.lexi.lore.blonde.teen.fucks.for.ride.nfo": 5217}
创建时间: 2018-11-02 21:19:46 大小:1.29 GB 文件数量:3 热度:147 最近下载:2025-10-13 03:03:02
    {"RARBG.to.nfo": 32, "TeensLoveHugeCocks - Lexi Lore - Punk Rock Pussy.mp4": 288256183}
创建时间: 2018-11-02 21:51:09 大小:274.9 MB 文件数量:2 热度:62 最近下载:2025-10-01 11:35:04
    {"Just One Night (Decadence Creek #1) by Lexi Ryan.pdf": 684413, "Just One Night (Decadence Creek #1) by Lexi Ryan.epub": 953248}
创建时间: 2018-11-02 22:07:50 大小:1.56 MB 文件数量:2 热度:26 最近下载:2024-09-21 01:06:02
    {"Silverdust.gif": 496757, "To help us keep going": 279, "Young Lexi Gets A Creampie By Her Boyfriends Step Dad POV.mp4": 463913695, "Young Lexi Gets A Creampie By Her Boyfriends Step Dad POV_preview.jpg": 239827}
创建时间: 2018-11-02 22:17:59 大小:443.13 MB 文件数量:4 热度:36 最近下载:2025-08-01 07:45:03
    {"RARBG.txt": 30, "file_id.diz": 106, "gagball.nfo": 271, "RARBG.COM_XXX_BANNER.jpg": 517081, "lsb_lexi_paula_ru111616_lrg_01.jpg": 1090806, "lsb_lexi_paula_ru111616_lrg_02.jpg": 1039578, "lsb_lexi_paula_ru111616_lrg_03.jpg": 1142773, " ...
创建时间: 2018-11-02 23:48:47 大小:147.67 MB 文件数量:175 热度:33 最近下载:2025-08-03 20:51:04
    {"i.nfo": 3952, "300x169.jpg": 31547, "psp_lexi_belle_1920_8000-hd.mp4": 1857811287, "psp_lexi_belle_1920_8000-hd_preview.jpg": 154645}
创建时间: 2018-11-02 23:48:52 大小:1.73 GB 文件数量:4 热度:40 最近下载:2025-09-19 00:32:04
    {"84992_001.jpg": 998209, "84992_002.jpg": 1053174, "84992_003.jpg": 1007608, "84992_004.jpg": 994838, "84992_005.jpg": 1024472, "84992_006.jpg": 1033713, "84992_007.jpg": 1008138, "84992_008.jpg": 956436, "84992_009.jpg": 977060, "84992_010.jpg": 1020058, ...
创建时间: 2018-11-02 23:54:09 大小:182.72 MB 文件数量:197 热度:31 最近下载:2025-05-30 18:03:02
    {"Sample": {"i.pos11382.s.mp4": 23584147}, "RARBG.com.txt": 34, "i.pos11382.mp4": 755293735, "i.pos11382.nfo": 2109}
创建时间: 2018-11-02 23:56:06 大小:742.8 MB 文件数量:4 热度:42 最近下载:2025-04-24 05:14:02
    {"RARBG.txt": 30, "nfbusty.18.02.09.lexi.luna.and.victoria.june.sexual.anticipation.mp4": 1158666606, "nfbusty.18.02.09.lexi.luna.and.victoria.june.sexual.anticipation.nfo": 5212}
创建时间: 2018-11-02 23:57:09 大小:1.08 GB 文件数量:3 热度:216 最近下载:2025-10-10 15:56:06
    {"Lexi Lowe loves Anal with BBC.mpg": 122509660}
创建时间: 2018-11-03 00:13:15 大小:116.83 MB 文件数量:1 热度:30 最近下载:2025-08-01 18:23:03
    {"poster.jpg": 55490, "screens.jpg": 602387, "wowp.16.10.12.alexa.tomas.and.lexi.dona.the.power.of.two.mp4": 1411472130}
创建时间: 2018-11-03 02:10:02 大小:1.32 GB 文件数量:3 热度:65 最近下载:2025-09-29 22:42:02
    {"RARBG.COM.txt": 34, "TeachMeFisting.16.08.06.Lexi.Dona.And.Eveline.Dellai.Dark-Haired.Stretchers.XXX.SD.MP4-RARBG.mp4": 189932337, "TeachMeFisting.16.08.06.Lexi.Dona.And.Eveline.Dellai.Dark-Haired.Stretchers.XXX.SD.MP4-RARBG.nfo": 3654}
创建时间: 2018-11-03 02:10:04 大小:181.14 MB 文件数量:3 热度:36 最近下载:2025-08-03 15:42:11